Home   Weather   Bad Homburg   Past weeks

Flag for Germany Past Weather in Bad Homburg, Hesse, Germany — Yesterday and Last 2 Weeks

Now
75 °F

Passing clouds.


Feels Like: 78 °F
Forecast: 55 / 65 °F
Wind: 8 mph from Southwest

Location: Frankfurt-M-Flughafen Airport

Current Time: Sep 25, 2016 at 4:11:38 PM

Latest Report: Sep 25, 2016 at 3:20 PM


Visibility: N/A

Pressure: 30.07 "Hg

Humidity: 47%

Dew Point: 54 °F

Location of Bad HomburgLocation

Past Weather in Bad Homburg — Graph

°F

Bad Homburg Temperature Yesterday

Maximum temperature yesterday: 75 °F (at 4:50 PM)
Minimum temperature yesterday: 46 °F (at 5:50 AM)
Average temperature yesterday: 60 °F

High & Low Weather Summary for the Past Weeks

 TemperatureHumidityPressure
High91 °F (Sep 13, 4:20 PM)100% (Sep 17, 6:20 AM)30.33 "Hg (Sep 17, 6:20 AM)
Low46 °F (Sep 21, 7:20 AM)26% (Sep 13, 6:20 PM)29.83 "Hg (Sep 15, 3:50 AM)
Average66 °F67%30.04 "Hg
* Reported Sep 10 2:20 PM — Sep 25 2:50 PM, Bad Homburg, Weather by CustomWeather, © 2016

Note: Actual official high and low records may vary slightly from our data, if they occured in-between our weather recording intervals... More about our weather records

Advertising

Bad Homburg Weather History for the Previous 24 Hours

Scroll right to see more
 ConditionsComfort  
Time TempWeatherWind HumidityBarometerVisibility
2:50 PM
Sun, Sep 25
73 °FPassing clouds.6 mph50%30.07 "HgN/A
2:20 PM73 °FPassing clouds.7 mph50%30.07 "HgN/A
1:50 PM73 °FPassing clouds.9 mph50%30.09 "HgN/A
1:20 PM70 °FPassing clouds.8 mph57%30.09 "HgN/A
12:50 PM70 °FPassing clouds.5 mph57%30.09 "HgN/A
12:20 PM68 °FPassing clouds.5 mph56%30.09 "HgN/A
11:50 AM66 °FPassing clouds.6 mph60%30.12 "HgN/A
11:20 AM64 °FPassing clouds.3 mph64%30.12 "HgN/A
10:50 AM64 °FSunny.3 mph60%30.12 "Hg10 mi
10:20 AM61 °FSunny.2 mph68%30.12 "Hg10 mi
9:50 AM59 °FSunny.2 mph68%30.12 "Hg10 mi
9:20 AM57 °FSunny.5 mph72%30.15 "Hg10 mi
8:50 AM55 °FPassing clouds.5 mph77%30.15 "HgN/A
8:20 AM52 °FSunny.2 mph88%30.15 "Hg10 mi
7:50 AM48 °FFog.1 mph94%30.12 "HgN/A
7:20 AM48 °FFog.6 mph94%30.12 "HgN/A
6:50 AM50 °FFog.5 mph88%30.12 "HgN/A
6:20 AM50 °FFog.5 mph88%30.12 "HgN/A
5:50 AM52 °FFog.7 mph82%30.12 "HgN/A
5:20 AM52 °FPassing clouds.3 mph82%30.12 "HgN/A
4:50 AM52 °FClear.6 mph82%30.12 "Hg10 mi
4:20 AM52 °FClear.5 mph88%30.12 "Hg10 mi
3:50 AM54 °FPassing clouds.5 mph82%30.12 "HgN/A
3:20 AM54 °FClear.5 mph82%30.15 "Hg10 mi
2:50 AM55 °FClear.2 mph77%30.15 "Hg10 mi
2:20 AM55 °FClear.3 mph77%30.15 "Hg10 mi
1:50 AM55 °FPassing clouds.3 mph77%30.15 "HgN/A
1:20 AM57 °FClear.7 mph72%30.15 "Hg10 mi
12:50 AM57 °FClear.6 mph72%30.15 "Hg10 mi
12:20 AM54 °FFog.6 mph82%30.15 "HgN/A
11:50 PM
Sat, Sep 24
57 °FClear.7 mph77%30.15 "Hg10 mi
11:20 PM57 °FClear.7 mph72%30.15 "Hg10 mi
10:50 PM57 °FClear.6 mph72%30.15 "Hg10 mi
10:20 PM57 °FClear.5 mph72%30.18 "Hg10 mi
9:50 PM63 °FPassing clouds.3 mph59%30.18 "HgN/A
9:20 PM64 °FClear.5 mph56%30.18 "Hg10 mi
8:50 PM66 °FPassing clouds.7 mph52%30.18 "HgN/A
8:20 PM66 °FClear.6 mph52%30.18 "Hg10 mi
7:50 PM68 °FPassing clouds.6 mph49%30.18 "HgN/A
7:20 PM70 °FClear.6 mph46%30.18 "Hg10 mi
6:50 PM72 °FSunny.6 mph44%30.18 "Hg10 mi
6:20 PM73 °FPassing clouds.7 mph44%30.18 "HgN/A
5:50 PM73 °FSunny.3 mph44%30.18 "Hg10 mi
5:20 PM73 °FSunny.5 mph44%30.21 "Hg10 mi
4:50 PM75 °FPassing clouds.7 mph41%30.21 "HgN/A
4:20 PM73 °FPassing clouds.8 mph44%30.21 "HgN/A
Weather by CustomWeather, © 2016

See weather overviewHow to use our weather pages